This is the latest recevied weather packets stored in our database for station/object ER1XDX-13. If no packets are shown the sender has not sent any weather packets the latest 10 day(s).
| Time | Temp. | Humidity | Pressure | Rain* | Wind** | Luminosity | Snow |
|---|---|---|---|---|---|---|---|
| 1778142041 | 23.89° C | 31% | 1006.2 hPa | - | - | - | - |
| 1778141141 | 23.89° C | 30% | 1006.2 hPa | - | - | - | - |
| 1778140241 | 23.89° C | 30% | 1006.1 hPa | - | - | - | - |
| 1778139341 | 23.89° C | 30% | 1006.2 hPa | - | - | - | - |
| 1778138441 | 24.44° C | 31% | 1006.3 hPa | - | - | - | - |
| 1778137541 | 24.44° C | 31% | 1006.3 hPa | - | - | - | - |
| 1778136641 | 24.44° C | 30% | 1006.2 hPa | - | - | - | - |
| 1778135741 | 24.44° C | 30% | 1006.2 hPa | - | - | - | - |
| 1778134841 | 25° C | 31% | 1006.1 hPa | - | - | - | - |
| 1778133941 | 25° C | 31% | 1006.1 hPa | - | - | - | - |
| 1778133041 | 25° C | 29% | 1006.2 hPa | - | - | - | - |
| 1778132141 | 25° C | 27% | 1006 hPa | - | - | - | - |
| 1778131241 | 24.44° C | 27% | 1005.9 hPa | - | - | - | - |
| 1778130340 | 24.44° C | 27% | 1006 hPa | - | - | - | - |
| 1778129440 | 24.44° C | 27% | 1005.9 hPa | - | - | - | - |
| 1778128540 | 24.44° C | 27% | 1005.8 hPa | - | - | - | - |
| 1778127640 | 24.44° C | 28% | 1005.8 hPa | - | - | - | - |
| 1778126739 | 23.89° C | 28% | 1005.6 hPa | - | - | - | - |
| 1778125839 | 23.89° C | 28% | 1005.4 hPa | - | - | - | - |
| 1778124939 | 23.33° C | 29% | 1005.3 hPa | - | - | - | - |
| 1778124039 | 22.78° C | 29% | 1005.3 hPa | - | - | - | - |
| 1778123139 | 22.22° C | 30% | 1005.2 hPa | - | - | - | - |
| 1778122239 | 22.22° C | 31% | 1005 hPa | - | - | - | - |
| 1778121339 | 21.67° C | 31% | 1005 hPa | - | - | - | - |
| 1778120439 | 21.67° C | 31% | 1005 hPa | - | - | - | - |
* Rain since midnight (hover to see other rain measurements)
** Current wind speed in m/s (hover to see current wind gust speed)